This demonstration page uses our WeatherBlox Daily Observations layout. Learn more.

Hourly Observations for September 17, 2018

Temp ( °F °C ) Dew Point ( °F °C ) Humidity (%) Winds ( mph kmh ) Pressure ( in mb ) Visibility ( mi km ) Precip ( " mm )
12:15 am 00:15 Clear 71 21.7 67 19.5 87 87 S 6 9 29.85 1011 10 16.09344 0 0
12:35 am 00:35 Clear 71 21.6 67 19.4 87 87 S 6 9 29.85 1011 10 16.09344 0 0
12:55 am 00:55 Clear 70 21.1 67 19.5 91 91 S 6 9 29.85 1011 10 16.09344 0 0
1:15 am 01:15 Clear 69 20.8 67 19.3 91 91 S 6 9 29.85 1011 10 16.09344 0 0
1:35 am 01:35 Clear 69 20.6 67 19.3 92 92 S 3 6 29.85 1011 10 16.09344 0 0
1:55 am 01:55 Clear 69 20.3 66 19.1 93 93 S 3 6 29.85 1011 10 16.09344 0 0
2:15 am 02:15 Clear 68 20.1 66 19 93 93 S 5 7 29.85 1011 10 16.09344 0 0
2:35 am 02:35 Clear 67 19.7 66 18.9 95 95 S 5 7 29.85 1011 10 16.09344 0 0
2:55 am 02:55 Clear 68 19.8 66 19 95 95 S 3 6 29.85 1011 10 16.09344 0 0
3:15 am 03:15 Clear 68 19.9 66 19 95 95 S 5 7 29.85 1011 10 16.09344 0 0
3:35 am 03:35 Clear 67 19.5 66 18.7 95 95 S 5 7 29.85 1011 10 16.09344 0 0
3:55 am 03:55 Clear 67 19.3 65 18.6 96 96 SSE 6 9 29.85 1011 10 16.09344 0 0
4:15 am 04:15 Clear 67 19.2 65 18.6 96 96 SSE 6 9 29.85 1011 10 16.09344 0 0
4:35 am 04:35 Clear 66 19 65 18.5 97 97 SSE 5 7 29.85 1011 10 16.09344 0 0
4:55 am 04:55 Clear 65 18.4 65 18.3 99 99 SSE 5 7 29.88 1012 10 16.09344 0 0
5:15 am 05:15 Clear 65 18.6 65 18.5 99 99 S 3 6 29.88 1012 10 16.09344 0 0
5:35 am 05:35 Clear 65 18.6 65 18.4 99 99 S 5 7 29.88 1012 10 16.09344 0 0
5:55 am 05:55 Clear 66 18.8 65 18.5 98 98 SSE 6 9 29.88 1012 10 16.09344 0 0
6:15 am 06:15 Clear 66 18.7 65 18.4 98 98 SSE 7 11 29.88 1012 10 16.09344 0 0
6:35 am 06:35 Clear 65 18.5 65 18.3 99 99 SSE 8 13 29.88 1012 10 16.09344 0 0
6:55 am 06:55 Clear 65 18.3 65 18.2 99 99 SSE 8 13 29.88 1012 10 16.09344 0 0
7:15 am 07:15 Clear 65 18.1 65 18.1 100 100 SSE 6 9 29.88 1012 7 11.265408 0 0
7:35 am 07:35 Sunny 64 18 64 18 100 100 SSE 6 9 29.88 1012 7 11.265408 0 0
7:55 am 07:55 Sunny 65 18.5 65 18.5 100 100 S 6 9 29.88 1012 7 11.265408 0 0
8:15 am 08:15 Sunny 66 18.9 66 18.8 99 99 SSE 6 9 29.85 1011 7 11.265408 0 0
8:35 am 08:35 Sunny 68 19.9 67 19.5 98 98 S 6 9 29.85 1011 7 11.265408 0 0
8:55 am 08:55 Sunny 69 20.8 68 20 95 95 SSE 8 13 29.85 1011 10 16.09344 0 0
9:15 am 09:15 Sunny 71 21.6 68 20.2 92 92 S 7 11 29.85 1011 10 16.09344 0 0
9:35 am 09:35 Sunny 72 22.3 69 20.3 89 89 S 8 13 29.85 1011 10 16.09344 0 0
9:55 am 09:55 Sunny 74 23.3 69 20.5 84 84 S 8 13 29.83 1010 10 16.09344 0 0
10:15 am 10:15 Sunny 75 24.1 69 20.4 80 80 S 7 11 29.85 1011 10 16.09344 0 0
10:35 am 10:35 Sunny 77 24.9 69 20.3 76 76 SSW 7 11 29.85 1011 10 16.09344 0 0
10:55 am 10:55 Sunny 78 25.5 68 20.1 72 72 S 6 9 29.85 1011 10 16.09344 0 0
11:15 am 11:15 Sunny 79 26.1 68 20.2 70 70 S 6 9 29.85 1011 10 16.09344 0 0
11:35 am 11:35 Sunny 80 26.7 68 20.2 68 68 SSE 7 11 29.83 1010 10 16.09344 0 0
11:55 am 11:55 Sunny 82 28 68 20.2 63 63 SSE 9 15 29.8 1009 10 16.09344 0 0
12:15 pm 12:15 Sunny 83 28.2 67 19.6 60 60 S 10 17 29.8 1009 10 16.09344 0 0
12:35 pm 12:35 Sunny 84 29 67 19.6 57 57 S 12 19 29.8 1009 10 16.09344 0 0
12:55 pm 12:55 Sunny 85 29.7 67 19.5 54 54 SSW 9 15 29.8 1009 10 16.09344 0 0
1:15 pm 13:15 Sunny 87 30.4 67 19.3 51 51 SSW 10 17 29.77 1008 10 16.09344 0 0
1:35 pm 13:35 Sunny 87 30.7 67 19.5 51 51 S 9 15 29.77 1008 10 16.09344 0 0
1:55 pm 13:55 Sunny 88 31.2 66 18.7 47 47 SSW 13 20 29.77 1008 10 16.09344 0 0
2:15 pm 14:15 Sunny 89 31.5 66 18.8 47 47 SSW 14 22 29.74 1007 10 16.09344 0 0
2:35 pm 14:35 Sunny 89 31.6 65 18.4 45 45 S 17 28 29.74 1007 10 16.09344 0 0
2:55 pm 14:55 Sunny 90 32 65 18.5 45 45 SSW 12 19 29.74 1007 10 16.09344 0 0
3:15 pm 15:15 Sunny 90 32.2 65 18.2 43 43 S 12 19 29.74 1007 10 16.09344 0 0
3:35 pm 15:35 Sunny 90 32.3 64 17.5 41 41 SSW 17 28 29.74 1007 10 16.09344 0 0
3:55 pm 15:55 Sunny 91 32.6 63 17.4 40 40 S 15 24 29.71 1006 10 16.09344 0 0
4:15 pm 16:15 Sunny 91 32.8 63 17.1 39 39 S 14 22 29.71 1006 10 16.09344 0 0
4:35 pm 16:35 Sunny 91 32.7 63 17.1 39 39 S 10 17 29.71 1006 10 16.09344 0 0
4:55 pm 16:55 Sunny 90 32.2 63 17.2 41 41 S 12 19 29.71 1006 10 16.09344 0 0
5:15 pm 17:15 Sunny 91 32.5 63 17.1 40 40 SSW 14 22 29.71 1006 10 16.09344 0 0
5:35 pm 17:35 Sunny 90 32.2 63 17.2 41 41 S 12 19 29.71 1006 10 16.09344 0 0
5:55 pm 17:55 Sunny 90 32.2 63 17.1 40 40 S 9 15 29.71 1006 10 16.09344 0 0
6:15 pm 18:15 Sunny 90 32.1 62 16.9 40 40 S 10 17 29.71 1006 10 16.09344 0 0
6:35 pm 18:35 Sunny 89 31.5 62 16.7 41 41 SSE 10 17 29.71 1006 10 16.09344 0 0
6:55 pm 18:55 Sunny 87 30.6 63 17.2 45 45 SSE 9 15 29.71 1006 10 16.09344 0 0
7:15 pm 19:15 Sunny 84 29.1 64 17.6 50 50 SSE 8 13 29.74 1007 10 16.09344 0 0
7:35 pm 19:35 Sunny 81 27.2 64 17.7 56 56 SSE 8 13 29.74 1007 10 16.09344 0 0
7:55 pm 19:55 Clear 79 26.1 64 17.7 60 60 SSE 8 13 29.74 1007 10 16.09344 0 0
8:15 pm 20:15 Clear 76 24.7 64 17.6 65 65 SSE 7 11 29.77 1008 10 16.09344 0 0
8:35 pm 20:35 Clear 75 24.1 64 17.6 67 67 SE 8 13 29.77 1008 10 16.09344 0 0
8:55 pm 20:55 Clear 75 24 64 17.5 67 67 SSE 8 13 29.77 1008 10 16.09344 0 0
9:15 pm 21:15 Clear 76 24.4 64 17.7 66 66 SSE 8 13 29.8 1009 10 16.09344 0 0
9:35 pm 21:35 Clear 75 24 64 17.9 69 69 SSE 8 13 29.8 1009 10 16.09344 0 0
9:55 pm 21:55 Clear 74 23.5 64 18 71 71 SSE 7 11 29.8 1009 10 16.09344 0 0
10:15 pm 22:15 Clear 73 22.5 65 18.1 76 76 SSE 6 9 29.8 1009 10 16.09344 0 0
10:35 pm 22:35 Clear 72 22.2 65 18.1 78 78 SSE 8 13 29.8 1009 10 16.09344 0 0
10:55 pm 22:55 Clear 73 22.5 65 18.1 76 76 SSE 7 11 29.8 1009 10 16.09344 0 0
11:15 pm 23:15 Clear 72 22.3 65 18.5 79 79 SSE 8 13 29.8 1009 10 16.09344 0 0
11:35 pm 23:35 Clear 73 22.9 66 18.8 78 78 SSE 8 13 29.8 1009 10 16.09344 0 0
11:55 pm 23:55 Clear 74 23.1 66 19 78 78 SSE 7 11 29.83 1010 10 16.09344 0 0

Powered by AerisWeather